ECMWFFLT2_850_dewp_123.txt.gz
Dewpoint
8 7 7 6 7 6 6 6 5 3 1 0 -0 -1 -2 -4 -6 -6 -5 -1 2 2 2 -1 -3 -1 -2 -5 -5 -4 -5 -5 -5 -9 -14 -17 -18 -17 -18 -17 -18 -17 -17 -18 -17 -18 -17 -18 -17 -17 -18 -17
7 7 6 6 6 6 6 5 3 0 -0 0 0 -0 -1 -3 -7 -8 -9 -6 -3 -3 -4 -6 -5 -3 -3 -4 -5 -5 -6 -8 -9 -14 -16 -16 -17 -16 -16 -16 -16 -16 -16 -16 -16 -15 -15 -16 -15 -16 -15 -15
7 7 6 6 6 5 4 2 0 -0 1 1 1 1 0 -2 -6 -9 -10 -9 -8 -9 -10 -10 -9 -8 -5 -3 -5 -7 -8 -11 -12 -15 -15 -15 -15 -15 -14 -14 -14 -14 -14 -14 -14 -14 -14 -15 -14 -15 -14 -15
7 7 6 6 5 3 1 -0 -0 1 1 1 1 2 1 -0 -4 -8 -10 -10 -10 -11 -11 -11 -11 -11 -8 -4 -5 -9 -12 -14 -14 -14 -14 -14 -14 -14 -15 -15 -16 -16 -17 -18 -19 -19 -20 -21 -20 -21 -20 -21
7 7 6 6 5 2 0 0 0 1 2 2 2 2 1 -0 -3 -7 -10 -11 -11 -12 -11 -12 -12 -11 -11 -8 -8 -12 -14 -14 -14 -14 -14 -15 -16 -18 -20 -22 -24 -26 -28 -28 -29 -31 -31 -33 -32 -33 -32 -33
7 7 6 6 4 2 1 1 1 2 2 3 3 2 1 0 -1 -5 -10 -11 -11 -12 -12 -12 -12 -12 -12 -11 -12 -14 -14 -14 -14 -15 -17 -20 -23 -27 -30 -30 -33 -33 -34 -34 -34 -35 -35 -35 -35 -36 -35 -34
7 7 7 6 4 2 1 1 2 2 3 3 2 2 2 1 -0 -3 -8 -11 -11 -12 -13 -13 -12 -12 -13 -13 -14 -15 -15 -15 -16 -19 -23 -27 -31 -32 -33 -33 -34 -34 -34 -34 -34 -35 -34 -36 -35 -35 -35 -35
7 7 7 6 5 3 2 2 2 3 3 3 2 2 2 1 0 -2 -7 -10 -11 -12 -13 -14 -14 -13 -13 -14 -14 -16 -17 -17 -20 -25 -29 -30 -33 -33 -33 -33 -33 -34 -33 -34 -34 -34 -34 -34 -34 -34 -34 -34
7 7 7 6 5 4 3 3 3 3 3 3 3 3 2 2 1 -1 -5 -9 -11 -12 -13 -15 -15 -14 -14 -14 -15 -17 -18 -20 -23 -27 -30 -31 -33 -33 -33 -32 -32 -33 -32 -33 -32 -33 -34 -32 -33 -33 -33 -33
7 6 6 6 5 5 4 3 3 4 4 4 3 3 3 2 1 0 -4 -9 -10 -11 -13 -15 -16 -16 -16 -16 -16 -18 -19 -22 -26 -28 -30 -31 -32 -32 -32 -32 -31 -32 -31 -32 -32 -31 -32 -31 -32 -31 -31 -32
6 6 6 6 6 5 5 4 4 4 4 4 4 3 3 2 2 1 -3 -7 -8 -10 -13 -15 -17 -17 -17 -17 -17 -18 -21 -23 -26 -28 -30 -30 -32 -31 -31 -31 -30 -32 -31 -31 -31 -31 -31 -31 -31 -30 -30 -30
7 6 6 6 6 5 5 5 4 4 4 4 4 4 3 2 2 1 -2 -5 -7 -9 -12 -15 -17 -18 -18 -18 -18 -19 -21 -24 -27 -28 -28 -30 -31 -30 -30 -30 -30 -30 -30 -31 -30 -30 -30 -30 -30 -30 -30 -30
7 6 6 6 6 6 5 5 4 4 4 4 4 4 3 3 2 1 -1 -4 -7 -9 -11 -14 -16 -19 -19 -19 -18 -20 -21 -24 -26 -27 -28 -29 -30 -31 -30 -30 -30 -30 -29 -29 -29 -30 -29 -29 -30 -29 -30 -29
6 6 5 5 6 6 5 5 5 4 4 4 4 4 3 3 2 1 -1 -3 -6 -8 -10 -12 -15 -18 -19 -19 -20 -20 -22 -24 -26 -27 -27 -28 -29 -30 -30 -29 -28 -28 -28 -29 -29 -29 -29 -29 -29 -29 -29 -29
7 6 6 5 5 5 5 5 5 4 4 4 4 4 3 2 2 1 0 -1 -4 -7 -9 -11 -13 -16 -18 -20 -20 -20 -22 -24 -25 -26 -27 -28 -29 -29 -29 -29 -28 -28 -28 -28 -28 -28 -28 -28 -28 -28 -28 -28
7 6 6 6 5 5 5 5 5 4 4 4 4 3 2 2 2 1 1 -0 -3 -6 -8 -9 -11 -13 -16 -18 -20 -21 -21 -23 -25 -26 -26 -26 -28 -29 -28 -27 -27 -27 -27 -27 -27 -27 -27 -27 -27 -27 -27 -26
7 7 6 6 5 5 5 5 5 4 5 5 4 3 2 2 2 1 1 0 -2 -4 -6 -8 -10 -12 -14 -17 -19 -20 -21 -22 -24 -25 -26 -27 -28 -28 -28 -28 -27 -26 -26 -26 -26 -27 -26 -26 -26 -25 -25 -25
7 6 6 6 5 5 5 5 5 4 5 5 4 3 2 2 2 1 1 0 -1 -3 -5 -6 -8 -10 -12 -14 -17 -19 -20 -22 -23 -24 -25 -26 -27 -28 -28 -27 -27 -26 -26 -26 -25 -26 -25 -25 -25 -25 -24 -24
7 7 6 6 6 5 5 5 5 4 4 5 4 3 2 2 2 1 1 1 -0 -2 -4 -5 -6 -8 -10 -12 -14 -16 -18 -20 -21 -23 -24 -26 -27 -27 -28 -27 -26 -26 -25 -25 -25 -25 -25 -24 -24 -24 -23 -23
6 7 6 6 6 5 6 5 5 5 5 5 4 3 2 2 2 2 1 1 0 -1 -2 -4 -5 -6 -8 -10 -12 -14 -15 -18 -19 -21 -22 -24 -26 -26 -27 -26 -25 -25 -25 -25 -24 -25 -24 -24 -24 -23 -23 -22
6 6 6 6 6 6 6 5 5 5 5 5 4 3 3 2 2 2 1 1 0 -0 -2 -3 -4 -4 -5 -7 -9 -11 -13 -15 -17 -18 -20 -21 -24 -25 -27 -26 -26 -25 -25 -24 -24 -24 -24 -23 -23 -23 -23 -22
6 6 6 6 6 6 6 5 5 5 5 5 4 4 3 3 2 2 2 1 1 0 -1 -2 -2 -3 -4 -5 -7 -9 -11 -12 -14 -15 -17 -20 -21 -24 -25 -26 -25 -24 -24 -24 -24 -23 -23 -23 -23 -22 -22 -22
6 6 6 6 6 6 6 5 5 5 5 5 4 4 4 3 3 2 2 1 1 0 -0 -1 -2 -2 -3 -4 -5 -6 -8 -10 -12 -13 -15 -17 -20 -21 -23 -25 -24 -25 -24 -24 -23 -23 -23 -22 -22 -22 -22 -21
5 6 6 6 6 5 5 5 5 5 5 5 4 4 4 3 3 3 2 2 1 1 0 -0 -1 -2 -2 -3 -3 -4 -6 -7 -9 -11 -13 -14 -16 -18 -20 -23 -24 -24 -24 -23 -23 -23 -22 -22 -22 -21 -21 -21
5 5 5 5 5 5 5 5 5 5 5 5 4 4 4 4 3 3 3 2 1 1 1 0 -0 -1 -1 -2 -2 -3 -4 -5 -6 -8 -10 -11 -13 -15 -17 -19 -21 -23 -23 -23 -23 -22 -22 -22 -22 -21 -20 -20
5 5 5 5 5 5 5 5 5 5 5 5 4 4 4 4 4 4 3 2 1 1 1 0 0 -0 -1 -1 -2 -2 -3 -3 -4 -6 -7 -9 -10 -12 -14 -16 -18 -21 -22 -23 -23 -22 -22 -21 -21 -21 -20 -20
5 5 4 4 4 4 5 5 5 5 5 5 4 4 4 4 4 4 3 2 2 1 1 1 0 0 -0 -1 -1 -1 -2 -2 -3 -4 -5 -7 -8 -10 -11 -13 -15 -18 -21 -23 -23 -22 -22 -22 -21 -21 -20 -20
4 4 4 4 4 4 4 4 5 5 4 4 4 4 4 4 4 4 4 3 2 1 1 1 1 1 0 -0 -1 -1 -1 -2 -2 -3 -3 -5 -6 -7 -9 -10 -12 -14 -17 -21 -22 -22 -22 -21 -21 -20 -20 -20
4 4 4 4 4 4 4 4 4 4 4 4 4 4 4 4 4 4 4 3 2 1 1 1 1 1 1 0 -0 -1 -1 -1 -2 -2 -3 -3 -4 -5 -7 -8 -9 -11 -13 -16 -20 -22 -22 -21 -21 -20 -20 -20
3 3 4 4 3 3 3 3 4 4 4 4 4 4 4 3 3 4 4 3 2 1 1 1 1 1 1 1 0 -0 -1 -1 -1 -2 -2 -3 -4 -4 -5 -6 -8 -9 -10 -12 -15 -19 -21 -22 -21 -20 -20 -19
3 3 3 3 3 3 3 3 3 3 3 3 3 3 3 3 3 3 3 3 2 1 0 0 0 1 1 1 0 -0 -0 -1 -1 -2 -2 -3 -3 -4 -4 -5 -6 -7 -9 -10 -12 -14 -17 -20 -21 -20 -20 -19

ECMWFFLT2_850_dewp_126.txt.gz
Dewpoint
9 8 8 8 7 7 6 6 6 6 5 3 1 0 -1 -1 -2 -5 -4 1 3 3 2 2 3 3 3 3 3 3 3 3 3 2 1 -5 -15 -18 -18 -18 -18 -18 -18 -18 -17 -17 -17 -18 -17 -17 -16 -13
9 8 8 8 7 6 6 6 6 5 5 2 1 1 0 -1 -2 -5 -6 -3 1 2 -1 -2 1 2 2 3 2 2 2 2 1 -1 -5 -13 -18 -17 -18 -17 -18 -17 -18 -17 -17 -18 -17 -18 -17 -17 -16 -14
8 8 8 7 7 6 6 5 5 5 4 1 1 1 1 0 -1 -4 -6 -6 -3 -0 -5 -7 -2 -1 1 2 2 1 2 1 -1 -5 -10 -16 -17 -16 -17 -16 -17 -16 -17 -16 -16 -17 -16 -17 -16 -16 -15 -15
8 8 7 7 6 6 6 5 5 5 2 0 1 1 1 1 0 -2 -5 -7 -7 -6 -8 -10 -9 -5 0 2 1 1 0 0 -3 -9 -13 -16 -15 -15 -15 -14 -15 -14 -15 -14 -14 -14 -14 -15 -14 -15 -14 -14
8 7 7 7 6 6 6 6 5 3 1 1 1 1 2 2 1 -1 -4 -8 -10 -10 -10 -10 -12 -10 -3 0 0 -2 -2 -3 -6 -12 -14 -14 -14 -14 -14 -14 -15 -15 -16 -15 -16 -16 -16 -17 -16 -18 -16 -17
8 7 7 6 6 6 6 5 4 3 1 1 2 2 2 2 1 -1 -4 -8 -11 -10 -11 -11 -11 -12 -7 -2 -3 -7 -9 -9 -12 -14 -14 -14 -15 -17 -18 -19 -21 -21 -23 -23 -24 -25 -25 -26 -25 -27 -25 -25
8 7 7 7 6 6 6 5 4 3 2 2 2 2 2 1 1 -0 -2 -6 -11 -11 -11 -12 -11 -12 -10 -7 -9 -12 -13 -14 -14 -15 -15 -18 -21 -23 -26 -28 -30 -31 -32 -32 -33 -34 -33 -34 -33 -34 -32 -33
8 8 7 7 7 6 6 5 4 3 2 2 2 2 2 2 2 1 -0 -4 -9 -11 -11 -12 -12 -12 -12 -12 -13 -14 -14 -15 -16 -18 -20 -24 -28 -30 -33 -32 -33 -33 -34 -34 -33 -34 -34 -34 -34 -34 -34 -34
8 8 7 7 7 6 6 5 4 3 2 2 2 2 2 2 2 2 1 -2 -7 -11 -11 -12 -13 -13 -13 -13 -13 -14 -15 -16 -19 -22 -26 -30 -31 -31 -34 -33 -34 -33 -33 -34 -34 -34 -34 -34 -34 -34 -35 -34
8 7 7 7 7 7 6 6 5 3 2 2 2 2 2 2 2 2 1 -0 -4 -9 -11 -12 -13 -13 -13 -13 -14 -15 -16 -18 -21 -26 -30 -30 -31 -33 -33 -33 -33 -33 -33 -33 -33 -34 -33 -34 -34 -33 -34 -34
8 7 7 7 7 7 6 6 5 3 2 2 3 3 3 3 3 2 1 1 -3 -8 -10 -12 -14 -14 -14 -14 -14 -15 -17 -20 -24 -28 -31 -30 -32 -32 -32 -33 -32 -33 -33 -32 -32 -32 -33 -32 -32 -33 -32 -33
8 7 7 7 7 7 7 6 5 4 3 3 3 3 3 4 3 2 2 1 -2 -6 -9 -11 -14 -15 -16 -15 -15 -16 -18 -22 -25 -28 -30 -30 -31 -31 -31 -31 -31 -32 -32 -32 -32 -31 -32 -32 -31 -32 -31 -32
8 8 7 7 7 7 7 6 5 5 4 3 3 3 4 4 3 2 2 1 -1 -5 -8 -10 -13 -15 -17 -17 -17 -18 -20 -22 -25 -28 -28 -30 -31 -31 -31 -30 -30 -31 -31 -31 -31 -31 -30 -31 -30 -30 -32 -30
7 7 7 7 7 7 6 6 6 5 4 4 4 4 4 3 3 2 2 2 -0 -4 -7 -9 -12 -15 -17 -18 -18 -19 -21 -23 -25 -27 -28 -29 -30 -31 -31 -30 -30 -29 -30 -30 -29 -31 -29 -30 -31 -29 -30 -29
7 7 7 7 7 7 6 6 6 5 5 4 4 4 4 3 3 3 2 1 -0 -2 -5 -8 -11 -13 -16 -18 -19 -20 -21 -22 -24 -27 -28 -29 -29 -30 -31 -29 -30 -30 -29 -30 -29 -30 -30 -29 -30 -29 -30 -29
7 7 7 7 7 7 6 6 5 5 5 5 4 4 4 3 3 3 3 2 0 -1 -3 -7 -9 -11 -14 -16 -19 -20 -21 -22 -23 -26 -27 -28 -29 -29 -30 -29 -28 -29 -28 -29 -29 -28 -29 -29 -29 -28 -29 -28
7 7 7 7 7 7 6 6 5 5 5 5 5 4 4 4 4 3 3 2 1 0 -1 -5 -8 -10 -12 -14 -17 -19 -21 -22 -22 -25 -26 -27 -28 -27 -29 -29 -29 -29 -28 -28 -28 -28 -28 -28 -28 -28 -28 -27
7 7 7 7 7 7 6 6 5 5 5 5 5 5 4 4 4 3 3 2 1 1 0 -3 -6 -8 -10 -12 -15 -17 -19 -21 -22 -23 -25 -26 -27 -27 -28 -29 -29 -27 -27 -27 -27 -28 -27 -27 -27 -26 -27 -26
7 7 7 7 7 7 7 6 6 5 5 5 5 5 4 4 4 4 3 2 1 1 0 -1 -4 -7 -8 -10 -12 -15 -17 -19 -21 -22 -23 -24 -26 -27 -27 -28 -29 -27 -27 -27 -27 -27 -26 -27 -27 -25 -26 -25
7 7 7 7 7 7 7 6 6 6 6 5 5 5 4 4 4 4 3 2 2 1 1 -0 -2 -4 -6 -8 -9 -12 -14 -16 -18 -20 -21 -23 -24 -25 -26 -27 -27 -27 -26 -26 -26 -26 -26 -25 -25 -25 -25 -24
7 7 7 7 7 7 7 6 7 6 6 6 5 5 5 4 4 4 3 2 1 1 1 0 -1 -2 -4 -6 -7 -9 -11 -13 -15 -17 -19 -20 -22 -22 -24 -25 -26 -27 -26 -26 -25 -25 -25 -25 -25 -24 -24 -24
7 7 7 7 7 7 7 6 6 6 6 6 5 5 5 4 4 4 3 2 1 1 1 1 0 -1 -3 -4 -5 -6 -8 -10 -12 -14 -16 -17 -19 -20 -22 -24 -25 -25 -25 -25 -25 -25 -25 -24 -24 -24 -24 -23
6 7 7 7 6 6 6 6 6 6 6 6 6 5 5 5 4 4 4 2 2 2 2 1 1 -0 -1 -2 -3 -4 -5 -7 -9 -11 -13 -15 -16 -18 -20 -22 -23 -24 -25 -25 -24 -24 -24 -24 -24 -24 -24 -23
6 6 6 6 6 6 6 6 6 6 6 6 5 5 5 5 4 4 4 3 2 2 2 1 1 0 -0 -1 -2 -3 -4 -5 -7 -8 -10 -12 -13 -15 -17 -18 -20 -22 -24 -24 -24 -24 -24 -24 -24 -23 -23 -23
5 6 6 6 6 6 6 6 6 6 6 6 6 5 5 5 5 4 4 4 3 2 2 2 1 1 0 -0 -1 -2 -3 -4 -4 -5 -6 -8 -10 -12 -13 -15 -17 -20 -22 -24 -24 -24 -23 -23 -23 -23 -23 -22
5 5 5 5 6 6 6 6 6 6 6 6 5 5 5 5 4 4 4 4 4 3 2 2 2 1 1 0 -1 -1 -2 -2 -3 -3 -4 -6 -7 -9 -11 -13 -15 -17 -19 -21 -23 -24 -24 -24 -23 -23 -22 -22
5 5 5 5 5 5 5 5 6 6 6 5 5 4 4 4 4 4 4 4 3 3 2 2 2 2 1 0 -0 -1 -1 -1 -2 -2 -3 -4 -5 -7 -8 -10 -12 -14 -16 -18 -22 -23 -24 -24 -23 -23 -22 -22
5 5 5 5 5 5 5 5 5 5 5 5 5 5 4 4 4 4 4 4 3 3 3 2 3 2 1 1 0 0 -0 -1 -1 -1 -2 -2 -3 -4 -6 -7 -9 -11 -13 -15 -19 -22 -23 -23 -22 -22 -21 -21
4 4 5 5 5 4 4 4 4 4 5 5 5 5 5 4 4 4 4 3 3 3 3 3 3 3 2 1 1 1 0 -0 -0 -1 -1 -2 -2 -2 -3 -4 -6 -7 -9 -11 -14 -18 -22 -21 -20 -20 -20 -20
4 4 4 4 4 4 4 4 4 4 4 4 4 4 4 4 3 4 4 3 3 3 3 3 3 3 3 2 1 1 1 0 0 -0 -1 -1 -1 -2 -2 -3 -4 -5 -6 -8 -10 -13 -17 -19 -20 -20 -19 -19
3 3 3 4 4 4 4 4 4 4 4 4 4 4 4 3 3 3 3 3 3 3 3 3 3 2 2 2 1 1 1 0 0 0 0 -0 -1 -1 -1 -2 -4 -4 -4 -5 -7 -8 -11 -13 -16 -18 -20 -20

ECMWFFLT2_850_dewp_129.txt.gz
Dewpoint
9 9 7 7 8 8 8 6 5 4 4 4 3 3 3 4 2 1 2 3 2 1 1 2 3 3 3 3 4 4 4 3 3 3 2 -1 -9 -15 -16 -17 -15 -14 -13 -11 -10 -8 -8 -11 -13 -17 -10 -3
9 9 8 8 8 8 8 6 3 4 5 4 3 2 2 2 1 -1 -0 2 1 -1 -1 -0 1 2 3 3 4 3 3 3 2 2 1 -5 -16 -17 -17 -17 -16 -16 -15 -14 -13 -13 -13 -15 -16 -16 -14 -9
9 9 8 7 8 8 7 6 5 5 5 4 3 2 2 2 1 -1 -2 -1 -0 -2 -5 -5 -3 1 2 3 3 3 3 2 1 1 -2 -11 -20 -17 -18 -17 -17 -17 -17 -16 -15 -16 -16 -17 -15 -13 -14 -12
9 8 7 6 7 8 7 6 6 5 5 4 3 3 2 2 1 0 -1 -1 -0 -2 -7 -9 -10 -4 0 2 2 2 2 1 0 -1 -4 -14 -19 -17 -18 -17 -18 -18 -17 -17 -17 -17 -17 -17 -14 -12 -15 -11
9 8 8 7 7 8 7 6 6 5 5 4 4 3 3 2 2 1 1 -1 -1 -3 -7 -9 -11 -9 -2 0 1 1 1 1 -0 -2 -7 -16 -17 -16 -16 -16 -16 -16 -16 -17 -16 -17 -16 -16 -16 -14 -14 -7
9 9 8 8 8 7 7 6 6 5 5 4 4 3 2 2 3 2 1 -1 -3 -6 -8 -9 -10 -10 -5 -1 -1 -0 1 -0 -1 -4 -12 -16 -15 -15 -15 -14 -15 -14 -15 -15 -14 -15 -14 -15 -15 -15 -13 -7
9 8 8 8 7 7 6 6 6 6 5 4 4 3 3 3 3 2 1 -1 -5 -8 -8 -10 -11 -11 -7 -3 -3 -4 -2 -2 -3 -8 -15 -14 -14 -15 -15 -15 -15 -15 -15 -15 -15 -15 -14 -15 -14 -14 -13 -9
8 8 8 8 7 6 6 6 6 5 5 5 4 3 3 3 3 2 1 -1 -5 -8 -9 -11 -11 -12 -10 -7 -8 -10 -9 -8 -10 -13 -14 -14 -16 -17 -18 -19 -19 -21 -21 -21 -20 -20 -20 -20 -18 -17 -16 -11
8 8 8 7 7 6 6 6 6 5 4 5 4 3 3 3 3 2 2 0 -4 -7 -10 -11 -11 -12 -11 -11 -11 -12 -14 -14 -14 -14 -15 -17 -19 -22 -25 -26 -28 -29 -29 -31 -29 -30 -29 -28 -28 -24 -24 -19
8 7 7 7 7 6 6 6 6 5 4 5 4 3 3 3 3 2 2 1 -1 -5 -9 -11 -11 -12 -12 -13 -13 -12 -14 -14 -14 -15 -18 -22 -25 -29 -30 -31 -33 -33 -33 -35 -33 -33 -33 -32 -35 -32 -29 -31
8 7 7 7 6 6 6 6 6 5 4 5 4 3 3 3 3 3 3 2 1 -2 -6 -10 -11 -12 -12 -14 -13 -13 -14 -14 -15 -17 -21 -27 -29 -30 -32 -33 -33 -34 -34 -34 -34 -33 -35 -34 -33 -35 -33 -32
8 7 7 7 6 6 6 6 6 6 5 5 4 3 3 3 3 3 3 3 2 -0 -4 -9 -11 -12 -13 -13 -13 -13 -13 -15 -15 -18 -24 -28 -30 -31 -32 -33 -32 -33 -34 -33 -35 -34 -34 -35 -34 -34 -34 -33
7 7 7 7 6 6 6 6 6 6 5 5 5 3 3 3 3 4 3 3 2 1 -2 -7 -10 -11 -13 -13 -14 -13 -14 -14 -15 -19 -25 -28 -30 -31 -32 -32 -32 -32 -33 -33 -33 -34 -34 -34 -35 -34 -34 -35
7 8 8 7 7 6 6 6 6 6 6 6 5 4 3 3 4 4 3 3 2 1 -1 -4 -8 -10 -12 -14 -15 -14 -14 -14 -16 -20 -25 -29 -29 -31 -32 -31 -31 -31 -32 -33 -32 -33 -33 -33 -33 -33 -33 -32
8 8 8 7 7 7 7 7 5 5 6 6 5 4 4 3 4 4 3 3 2 2 1 -2 -6 -9 -11 -14 -16 -16 -15 -15 -17 -21 -25 -29 -28 -29 -31 -30 -31 -30 -31 -31 -32 -32 -31 -33 -32 -31 -33 -31
8 8 8 8 8 8 7 7 6 5 6 6 6 5 4 4 4 4 3 3 3 2 2 -0 -4 -7 -10 -13 -16 -17 -17 -17 -17 -21 -25 -27 -29 -29 -30 -30 -30 -29 -30 -30 -30 -31 -29 -30 -31 -30 -31 -30
8 8 8 8 8 8 8 7 7 6 6 6 6 5 4 4 4 4 3 3 3 2 2 1 -2 -4 -8 -11 -15 -17 -18 -19 -18 -21 -24 -27 -28 -28 -29 -29 -30 -29 -29 -30 -29 -30 -30 -30 -30 -30 -30 -30
8 7 7 8 7 8 8 7 7 7 6 6 6 5 4 4 4 4 3 3 3 2 2 1 -0 -2 -6 -10 -13 -16 -19 -19 -20 -21 -23 -26 -27 -27 -28 -29 -29 -29 -28 -29 -29 -28 -29 -29 -29 -29 -29 -30
7 7 7 7 7 7 8 7 7 6 6 6 6 6 5 4 5 4 3 3 3 3 2 1 1 -0 -4 -8 -11 -14 -17 -19 -19 -21 -22 -24 -26 -26 -27 -28 -29 -29 -28 -28 -28 -28 -28 -28 -28 -29 -28 -29
7 7 7 7 7 7 7 7 7 6 6 6 6 6 5 5 5 5 4 3 3 3 3 2 1 0 -2 -6 -9 -11 -14 -17 -19 -20 -22 -22 -24 -26 -26 -26 -28 -28 -28 -28 -27 -27 -27 -27 -27 -27 -27 -27
7 7 7 7 7 7 7 7 7 6 6 6 6 5 5 5 5 5 5 4 3 3 3 2 1 1 -0 -3 -6 -9 -11 -14 -16 -18 -20 -21 -22 -24 -25 -25 -26 -26 -28 -28 -27 -27 -27 -27 -27 -26 -27 -26
6 6 7 7 7 7 7 6 7 7 6 6 6 5 5 5 5 5 5 4 4 3 2 2 1 1 0 -1 -4 -6 -8 -11 -13 -15 -17 -19 -21 -21 -23 -24 -24 -25 -26 -27 -27 -27 -26 -26 -26 -26 -26 -25
6 6 7 7 7 7 7 6 6 6 6 6 6 6 5 4 5 5 5 5 4 3 2 2 1 1 1 0 -2 -4 -6 -8 -10 -12 -14 -16 -18 -19 -20 -21 -22 -24 -25 -27 -26 -26 -26 -25 -25 -25 -25 -25
5 5 6 7 7 7 6 6 6 6 6 6 6 6 5 4 4 4 5 5 4 4 3 1 1 1 1 1 -0 -2 -4 -5 -7 -9 -11 -13 -15 -16 -17 -19 -21 -23 -24 -25 -26 -26 -26 -25 -25 -25 -25 -25
5 5 6 7 7 7 6 6 6 6 6 6 6 6 5 4 4 4 4 5 5 4 3 2 1 1 1 1 1 -0 -2 -3 -5 -6 -7 -9 -11 -13 -14 -16 -18 -20 -21 -22 -24 -25 -26 -25 -25 -25 -24 -24
5 5 6 6 6 6 6 6 6 6 6 6 5 5 5 5 4 4 4 5 5 4 4 3 2 1 1 1 1 1 -1 -2 -3 -4 -4 -6 -7 -9 -11 -12 -14 -16 -17 -19 -21 -23 -24 -25 -24 -25 -24 -24
5 5 5 5 4 4 5 5 5 5 5 5 5 5 4 5 4 4 4 4 4 4 4 3 2 2 1 1 1 1 0 -1 -2 -2 -3 -3 -4 -6 -7 -10 -11 -12 -15 -16 -18 -21 -22 -23 -24 -23 -24 -24
4 4 5 4 4 4 4 4 4 4 4 4 4 5 4 4 4 4 4 4 4 4 4 3 3 3 1 1 1 1 1 0 -1 -1 -2 -2 -3 -3 -5 -7 -8 -9 -11 -13 -16 -20 -22 -23 -24 -22 -22 -24
3 3 4 4 4 4 4 5 4 4 5 4 4 4 4 4 4 4 4 4 3 3 4 4 3 3 2 1 0 0 1 0 -0 -0 -1 -1 -1 -2 -3 -4 -5 -5 -7 -10 -13 -18 -22 -22 -22 -22 -20 -21
2 2 3 3 4 4 4 4 4 4 5 5 4 4 4 4 4 4 4 4 3 3 4 4 4 3 2 2 1 0 0 1 0 -0 -0 -0 -1 -1 -1 -2 -3 -3 -3 -5 -8 -12 -17 -20 -20 -21 -20 -19
1 2 2 2 3 3 4 4 3 4 4 4 4 3 3 3 3 4 4 4 3 3 3 3 4 3 2 2 1 0 -0 0 1 1 0 0 -0 -0 -1 -1 -2 -3 -2 -2 -5 -7 -9 -13 -17 -19 -20 -20

ECMWFFLT2_850_dewp_132.txt.gz
Dewpoint
10 9 8 8 6 4 4 5 5 5 5 4 3 2 2 2 1 1 0 1 2 2 2 2 3 4 4 4 4 4 4 4 3 2 2 2 2 1 -5 -13 -10 -6 -5 -4 -4 -4 -5 -8 -13 -7 0 3
10 9 9 8 5 4 4 4 5 6 5 3 4 2 1 2 1 1 0 0 -0 -1 -3 -3 -0 2 3 4 4 4 4 4 3 1 0 -2 -5 -8 -12 -9 -7 -7 -6 -5 -5 -5 -6 -10 -12 -6 -2 2
10 10 9 8 6 6 4 4 6 6 4 4 4 1 1 1 1 1 0 1 -0 -0 -2 -6 -4 0 2 3 3 3 3 3 1 -1 -3 -7 -14 -17 -13 -9 -7 -7 -7 -7 -6 -6 -7 -12 -11 -6 -4 1
10 9 9 8 8 7 5 5 6 4 4 4 4 2 2 1 1 1 0 0 0 -0 -1 -4 -5 -2 1 2 2 2 1 1 -0 -3 -7 -13 -18 -17 -16 -14 -12 -10 -10 -10 -9 -9 -11 -15 -11 -8 -6 1
10 9 9 9 8 8 7 7 5 3 4 5 4 3 2 2 1 1 1 0 0 -0 -2 -4 -5 -3 -1 1 1 -0 -2 -2 -2 -2 -9 -17 -17 -18 -18 -17 -16 -15 -14 -13 -13 -13 -14 -17 -12 -11 -8 1
10 10 9 9 9 8 7 7 6 5 5 5 4 4 3 2 2 1 1 1 0 0 -2 -3 -4 -5 -5 -3 -2 -4 -5 -5 -4 -5 -12 -17 -17 -19 -17 -18 -18 -17 -17 -16 -16 -16 -16 -18 -13 -14 -10 -0
10 10 9 9 9 8 7 7 7 6 6 5 4 4 3 3 3 2 2 1 -0 -1 -1 -2 -3 -5 -7 -7 -6 -7 -8 -7 -7 -9 -13 -15 -18 -17 -16 -18 -18 -17 -18 -17 -17 -17 -16 -18 -15 -15 -10 -1
10 9 9 9 8 8 8 7 7 6 6 5 5 4 3 3 3 3 2 1 -0 -1 -1 -2 -3 -5 -6 -6 -7 -8 -10 -11 -11 -12 -12 -14 -16 -16 -16 -16 -16 -17 -16 -17 -17 -16 -16 -17 -16 -16 -11 -2
9 9 9 8 8 8 8 7 7 6 6 5 5 4 3 3 3 3 2 1 0 -1 -2 -3 -3 -4 -5 -4 -6 -7 -10 -12 -14 -14 -13 -13 -14 -14 -15 -15 -15 -15 -15 -15 -15 -15 -15 -15 -15 -15 -13 -6
9 9 8 8 8 8 8 7 7 6 6 5 4 4 3 3 3 3 2 2 1 1 -0 -2 -3 -4 -5 -5 -6 -9 -11 -13 -15 -15 -14 -14 -13 -14 -14 -14 -14 -14 -14 -15 -14 -15 -14 -14 -14 -14 -14 -11
9 9 8 8 8 8 8 7 7 6 6 5 4 3 3 3 3 3 3 3 3 3 2 1 -1 -3 -5 -7 -9 -11 -13 -15 -16 -15 -15 -14 -14 -14 -15 -16 -17 -17 -18 -18 -18 -18 -18 -18 -16 -16 -15 -13
9 9 8 8 8 8 7 7 7 6 6 5 4 3 3 3 3 3 3 3 3 3 3 3 1 -1 -5 -8 -10 -12 -14 -15 -16 -15 -15 -15 -16 -18 -19 -22 -23 -24 -26 -26 -29 -26 -28 -26 -23 -24 -19 -17
8 9 8 8 8 8 7 6 6 6 6 5 4 4 3 3 3 3 3 3 3 3 3 3 2 -1 -4 -8 -11 -13 -15 -15 -15 -15 -16 -16 -19 -23 -26 -29 -29 -32 -32 -33 -34 -32 -34 -32 -32 -32 -28 -28
8 8 8 7 7 7 6 5 5 5 6 5 5 4 3 3 3 3 3 4 4 3 3 3 2 -0 -4 -8 -11 -12 -14 -16 -15 -15 -16 -17 -21 -28 -30 -32 -32 -34 -33 -34 -34 -33 -35 -31 -36 -32 -32 -37
8 8 8 7 7 7 6 5 4 4 5 6 5 5 4 3 3 3 4 4 4 3 3 3 2 1 -2 -7 -10 -11 -13 -16 -15 -15 -16 -17 -21 -27 -30 -32 -32 -34 -32 -34 -33 -32 -35 -32 -35 -33 -33 -35
8 8 8 7 7 6 6 6 5 5 5 6 6 5 4 3 3 3 4 4 4 3 3 3 2 2 -0 -4 -8 -10 -13 -16 -16 -14 -15 -16 -20 -26 -29 -32 -31 -33 -32 -32 -33 -33 -34 -32 -34 -33 -33 -35
8 8 8 7 7 7 7 7 6 6 6 6 6 5 5 4 4 4 4 4 4 3 3 3 3 2 1 -1 -5 -10 -12 -15 -16 -15 -15 -16 -20 -25 -28 -31 -30 -32 -31 -31 -33 -31 -33 -33 -34 -33 -33 -35
8 8 8 7 7 7 7 7 7 6 6 6 6 6 5 5 4 4 4 4 4 3 3 3 3 2 2 0 -3 -8 -11 -14 -17 -17 -16 -16 -19 -23 -27 -30 -30 -31 -30 -30 -31 -30 -32 -31 -32 -32 -32 -34
7 8 8 7 7 7 7 7 7 7 6 6 6 5 5 5 4 4 4 4 4 3 3 3 3 3 2 1 -1 -5 -9 -13 -16 -17 -17 -16 -18 -23 -26 -28 -28 -29 -29 -30 -30 -29 -30 -30 -31 -31 -30 -32
6 7 7 7 7 7 7 7 7 6 6 7 6 5 5 5 3 3 4 4 4 4 3 3 3 3 2 1 0 -2 -6 -11 -15 -17 -19 -18 -18 -22 -25 -27 -27 -27 -29 -29 -29 -29 -29 -29 -30 -30 -29 -31
4 5 7 7 7 7 6 6 6 6 6 6 6 5 4 4 3 3 4 4 4 4 3 3 3 3 3 1 1 -1 -4 -8 -13 -16 -18 -20 -20 -21 -23 -25 -27 -27 -27 -28 -29 -28 -28 -29 -28 -29 -29 -29
5 5 6 7 7 7 6 6 6 6 6 6 6 6 5 4 4 4 4 4 4 4 3 3 3 3 3 2 1 -0 -2 -6 -10 -13 -16 -19 -20 -21 -22 -24 -26 -26 -27 -27 -29 -28 -28 -28 -27 -28 -28 -28
6 6 6 6 6 6 6 6 6 6 6 6 6 6 6 5 5 5 4 4 4 4 4 3 3 3 3 2 1 1 -1 -4 -7 -10 -13 -17 -19 -20 -21 -23 -25 -25 -25 -26 -28 -29 -28 -28 -27 -27 -27 -27
6 6 6 6 6 6 5 4 5 6 5 5 6 5 5 5 4 5 4 4 4 4 4 4 3 3 3 2 1 1 -0 -1 -4 -6 -9 -13 -16 -19 -21 -22 -23 -23 -23 -25 -26 -27 -27 -27 -26 -26 -27 -27
5 6 6 6 5 5 4 2 3 5 6 5 5 5 5 4 4 4 4 4 4 3 4 4 3 3 3 3 2 1 1 0 -1 -3 -6 -9 -12 -16 -19 -21 -22 -21 -22 -23 -24 -25 -26 -26 -26 -26 -26 -26
4 4 5 5 5 5 4 3 1 3 5 5 5 5 5 5 5 4 4 4 4 3 4 3 3 3 3 3 2 1 1 0 -1 -2 -4 -6 -9 -12 -15 -17 -20 -21 -21 -22 -23 -25 -25 -25 -25 -25 -25 -25
3 3 4 4 5 5 4 4 3 2 4 5 5 5 5 5 4 4 4 4 4 4 3 3 2 2 3 3 3 2 1 -0 -1 -2 -3 -4 -6 -8 -11 -14 -16 -17 -19 -21 -22 -22 -22 -24 -25 -25 -25 -25
2 3 3 3 4 4 4 5 4 4 4 5 4 4 5 5 4 4 4 4 4 4 3 3 3 2 2 3 3 2 1 -0 -1 -2 -2 -3 -5 -6 -8 -10 -12 -14 -16 -17 -18 -20 -21 -22 -23 -23 -24 -25
1 2 2 2 3 3 3 3 4 4 4 4 3 4 4 3 3 4 4 4 4 4 3 3 3 3 2 2 3 2 1 0 -0 -0 -1 -2 -4 -4 -4 -5 -8 -10 -12 -14 -15 -17 -20 -21 -22 -22 -23 -25
-0 0 1 1 2 2 2 2 2 2 3 3 3 4 3 3 3 3 3 4 4 3 3 3 3 3 3 3 3 2 1 0 -0 0 -0 -1 -2 -3 -3 -4 -5 -6 -8 -10 -12 -13 -16 -18 -21 -22 -23 -23
-3 -2 -1 -0 0 0 1 1 1 1 1 2 2 3 3 3 4 4 3 3 4 3 3 3 3 3 2 2 3 2 1 -0 -1 0 0 -0 -1 -2 -3 -3 -4 -4 -5 -7 -8 -9 -11 -13 -17 -20 -22 -23

ECMWFFLT2_850_dewp_135.txt.gz
Dewpoint
11 11 10 9 8 7 7 6 5 4 4 5 5 2 2 1 -0 -0 -1 -2 -2 0 0 -2 2 4 3 2 3 2 2 4 4 3 4 4 4 2 -3 -7 -4 -1 1 1 1 -0 -5 -3 2 3 3 4
11 10 10 10 8 8 7 6 6 4 4 5 4 3 2 1 1 0 -0 -1 -2 -2 -3 -3 0 3 4 3 1 1 1 2 1 -1 -0 -1 -1 -4 -9 -9 -4 -0 2 2 1 -0 -6 -6 1 3 3 3
11 10 10 10 9 7 7 6 5 4 4 4 3 3 2 2 1 1 1 -0 -1 -1 -2 -3 -3 -0 2 2 1 1 -1 -3 -4 -7 -6 -7 -9 -12 -15 -13 -7 -2 1 2 1 -0 -6 -10 -1 2 2 1
10 10 10 10 9 8 7 6 5 4 4 3 3 3 2 2 2 1 1 0 -0 -0 -1 -1 -2 -1 1 1 -1 -0 -2 -5 -7 -10 -11 -12 -14 -17 -15 -15 -11 -6 -3 -1 -1 -2 -7 -13 -2 2 2 1
10 10 10 10 9 8 6 5 5 5 5 3 2 3 2 2 1 1 -0 -0 0 -0 -0 -1 -1 -1 0 0 -1 -2 -3 -4 -5 -9 -12 -14 -16 -16 -14 -16 -15 -12 -10 -7 -7 -5 -8 -14 -4 1 1 1
10 10 10 10 9 7 6 6 6 6 5 3 2 2 3 2 1 1 -0 -0 -0 -1 -1 -1 -1 -1 -1 -1 -1 -2 -3 -3 -4 -7 -10 -14 -16 -16 -16 -17 -17 -16 -16 -14 -13 -8 -10 -14 -5 0 0 1
10 10 10 10 9 7 7 7 6 6 5 2 2 3 3 3 1 1 1 0 0 -0 -1 -2 -1 -1 -2 -2 -3 -3 -4 -4 -4 -6 -9 -12 -14 -15 -16 -17 -17 -16 -17 -17 -17 -13 -13 -16 -8 -2 -2 -0
10 10 10 9 9 8 8 7 7 7 5 3 3 4 4 3 3 3 2 1 1 0 -0 -1 -1 -1 -1 -2 -3 -3 -4 -4 -4 -6 -7 -10 -11 -13 -15 -16 -16 -15 -15 -16 -17 -16 -16 -17 -13 -8 -6 -4
10 10 10 9 9 9 8 8 7 7 5 4 5 4 4 4 4 3 2 1 1 0 -1 -1 -1 -1 -1 -1 -2 -2 -3 -3 -4 -4 -5 -8 -10 -11 -13 -14 -15 -15 -15 -15 -16 -17 -17 -17 -15 -13 -10 -8
9 10 10 9 9 8 8 8 8 7 6 5 5 4 4 4 4 3 2 2 1 -0 -1 -1 -1 -2 -1 -1 -1 -1 -1 -2 -3 -3 -4 -7 -9 -11 -12 -13 -13 -14 -15 -16 -16 -16 -18 -17 -15 -14 -11 -9
9 9 10 9 8 8 8 8 8 7 6 6 5 5 4 4 4 3 3 2 1 -1 -1 -1 -1 -2 -2 -1 -1 -1 -1 -1 -2 -3 -5 -7 -9 -11 -12 -12 -12 -12 -12 -12 -13 -14 -16 -15 -14 -15 -14 -10
9 9 9 9 8 8 8 8 8 7 6 6 6 5 5 4 4 3 3 2 1 -0 -1 -1 -2 -2 -2 -2 -2 -2 -2 -2 -3 -4 -6 -8 -10 -11 -12 -13 -12 -12 -11 -11 -11 -12 -13 -13 -13 -14 -15 -12
8 9 9 9 8 8 8 8 8 7 7 6 6 6 5 4 4 4 4 3 2 1 1 1 0 -0 -1 -1 -2 -3 -3 -4 -6 -7 -9 -11 -12 -12 -13 -13 -13 -13 -12 -12 -12 -12 -12 -12 -13 -14 -14 -14
7 8 9 9 9 8 8 8 8 7 7 6 6 6 5 5 4 4 4 3 3 2 2 3 2 2 1 1 -0 -2 -4 -6 -8 -9 -11 -13 -14 -15 -14 -14 -14 -15 -14 -14 -14 -14 -15 -15 -15 -14 -14 -15
5 7 8 8 8 9 8 8 8 7 7 6 5 5 4 4 4 5 5 4 3 3 3 3 3 3 2 2 1 -1 -4 -7 -9 -12 -14 -16 -17 -17 -16 -16 -17 -17 -18 -18 -19 -20 -21 -22 -21 -19 -16 -17
4 4 7 8 8 8 8 8 7 7 7 6 5 4 4 4 4 5 5 4 4 3 3 3 3 3 2 2 1 -1 -5 -8 -10 -13 -15 -17 -18 -18 -18 -19 -20 -22 -24 -25 -27 -29 -29 -32 -29 -29 -25 -22
4 3 5 7 8 8 8 7 7 7 7 6 5 5 4 4 4 5 5 4 4 3 3 3 3 3 3 2 1 -1 -5 -8 -11 -14 -15 -17 -18 -18 -19 -21 -25 -26 -30 -31 -33 -35 -32 -36 -33 -33 -34 -29
4 3 3 4 6 8 8 7 7 7 7 6 6 6 5 5 5 5 5 4 4 3 3 3 3 3 3 2 1 -0 -3 -6 -10 -13 -15 -17 -17 -18 -19 -20 -27 -30 -34 -34 -33 -35 -32 -35 -33 -33 -34 -32
5 4 3 3 3 5 7 8 7 7 7 7 6 6 6 5 5 5 5 5 4 3 3 3 4 3 3 3 2 1 -1 -4 -7 -11 -13 -16 -18 -19 -19 -19 -25 -30 -31 -33 -32 -33 -32 -33 -32 -33 -34 -32
6 5 5 4 3 2 5 7 7 7 7 7 6 6 6 6 5 5 5 5 4 3 3 3 4 3 3 3 2 1 0 -2 -5 -8 -11 -14 -17 -19 -20 -20 -24 -29 -31 -32 -32 -32 -31 -33 -32 -32 -33 -32
7 7 6 5 5 3 2 5 7 7 7 6 6 6 6 6 6 5 4 4 4 3 3 3 4 3 3 3 3 2 1 -1 -3 -6 -9 -12 -15 -18 -21 -20 -22 -27 -31 -31 -30 -31 -30 -31 -31 -31 -34 -31
6 7 6 6 6 5 4 3 5 6 6 6 6 6 5 5 6 5 5 4 3 3 3 3 3 3 3 3 2 2 2 0 -1 -5 -8 -12 -15 -17 -20 -21 -22 -25 -29 -31 -30 -30 -30 -30 -31 -30 -32 -30
6 6 6 6 6 6 6 5 5 6 6 6 5 5 6 5 5 5 4 3 2 2 3 3 3 3 2 2 3 3 2 1 -1 -3 -8 -12 -14 -16 -18 -20 -21 -23 -27 -30 -29 -30 -30 -28 -30 -28 -30 -30
5 5 5 5 5 5 5 5 6 6 6 5 4 4 5 5 5 5 4 4 3 2 2 2 3 3 2 1 1 2 2 1 0 -1 -5 -9 -13 -15 -17 -18 -19 -21 -24 -28 -27 -27 -28 -28 -28 -28 -28 -29
4 4 4 4 4 4 4 4 5 5 5 5 3 3 4 4 5 5 5 4 3 3 2 2 2 2 2 1 1 1 2 2 1 -0 -3 -6 -11 -14 -16 -18 -19 -20 -22 -25 -26 -25 -27 -27 -27 -27 -26 -28
2 2 2 2 3 3 3 4 4 4 4 5 4 4 4 4 5 5 5 4 4 3 3 2 2 2 2 2 1 1 1 0 1 1 -1 -4 -8 -12 -14 -17 -18 -20 -21 -22 -26 -27 -26 -25 -25 -26 -27 -27
0 1 1 1 1 2 2 3 3 3 3 3 4 4 4 4 5 5 4 4 4 3 3 3 2 2 2 3 2 1 -0 -2 -2 -0 -0 -2 -5 -9 -12 -16 -17 -19 -21 -22 -24 -25 -24 -25 -24 -24 -25 -26
-4 -3 -1 -0 0 1 1 2 2 3 3 2 2 3 3 4 4 4 4 4 4 4 3 3 3 2 2 2 2 2 1 -1 -4 -3 -1 -1 -4 -7 -9 -12 -14 -16 -19 -21 -23 -24 -23 -23 -23 -22 -24 -26
-11 -9 -7 -4 -2 -1 0 1 1 2 2 2 1 2 2 2 3 3 3 3 3 3 4 3 3 3 2 2 2 2 2 1 -2 -3 -3 -3 -4 -5 -6 -8 -10 -13 -16 -18 -20 -23 -23 -22 -21 -23 -27 -27
-12 -12 -12 -10 -8 -5 -3 -2 -1 -0 0 0 0 0 1 1 2 2 2 2 3 3 3 3 3 3 3 2 2 2 2 2 1 -0 -1 -3 -4 -6 -6 -7 -10 -11 -12 -15 -17 -20 -22 -22 -23 -26 -27 -27
-14 -12 -11 -11 -11 -9 -7 -5 -4 -3 -2 -1 -1 -1 -0 0 1 1 1 1 1 2 2 2 2 2 2 2 2 2 2 2 1 1 1 0 -2 -5 -7 -8 -9 -10 -9 -11 -14 -16 -18 -20 -22 -24 -25 -26

ECMWFFLT2_850_dewp_138.txt.gz
Dewpoint
10 11 12 11 10 10 10 9 9 8 7 6 6 5 5 3 2 2 1 -0 -2 -2 -3 -3 -1 -1 -1 -2 -1 1 4 6 5 2 2 3 4 4 4 3 3 4 5 5 5 5 4 3 3 3 3 2
10 10 10 10 10 9 9 9 8 7 7 7 6 6 4 4 2 1 1 -1 -3 -3 -5 -6 -5 -4 -3 -2 -0 1 2 4 4 3 2 1 1 1 2 3 2 2 3 4 4 4 4 3 2 3 3 3
10 10 10 10 10 9 8 8 7 7 6 6 6 5 4 3 3 2 1 0 -1 -2 -4 -5 -6 -6 -4 -4 -2 -2 -1 1 1 -1 -2 -3 -2 -3 -0 2 1 -1 -0 1 1 1 1 2 2 2 2 3
10 10 10 10 9 8 8 7 7 7 6 6 5 5 4 3 2 2 2 1 0 -0 -2 -3 -3 -4 -3 -3 -3 -3 -4 -3 -5 -8 -9 -8 -6 -5 -3 -1 -2 -2 -2 -1 -1 -3 -4 -2 -1 -1 -0 1
9 10 10 9 9 8 8 8 7 7 6 6 5 4 3 3 2 2 1 1 0 0 -1 -2 -2 -2 -2 -2 -2 -2 -3 -4 -6 -9 -11 -13 -12 -9 -8 -7 -6 -5 -3 -2 -2 -3 -7 -8 -7 -5 -3 -1
9 10 10 9 9 8 8 8 7 7 6 6 5 3 3 2 2 2 1 1 0 -0 -0 -1 -1 -1 -1 -1 -1 -2 -2 -3 -5 -8 -9 -13 -15 -13 -13 -13 -12 -10 -7 -6 -3 -4 -9 -13 -12 -9 -6 -3
9 10 10 9 9 8 9 8 8 7 6 6 4 3 3 2 2 2 1 1 0 -0 -0 -1 -0 -0 0 -0 -1 -2 -2 -3 -4 -6 -8 -11 -14 -14 -15 -15 -14 -13 -12 -10 -6 -5 -9 -14 -15 -13 -10 -6
9 10 10 10 9 9 9 8 8 7 6 5 4 3 3 3 2 2 1 1 0 -0 -0 -0 0 1 1 0 -1 -2 -2 -2 -3 -4 -7 -10 -12 -13 -14 -15 -16 -15 -15 -14 -11 -10 -11 -14 -17 -15 -11 -8
8 9 10 9 9 9 9 8 8 8 7 6 4 4 3 3 3 2 2 1 0 -0 -0 -0 1 1 1 0 -1 -1 -1 -2 -2 -2 -4 -7 -9 -11 -12 -14 -16 -16 -16 -15 -16 -16 -15 -15 -17 -15 -11 -8
6 8 9 9 9 9 9 8 8 8 7 7 5 4 4 3 3 2 2 1 0 -0 -1 -0 0 1 1 -0 -1 -1 -1 -1 -1 -1 -2 -3 -4 -6 -9 -11 -14 -15 -15 -15 -15 -17 -17 -16 -17 -15 -10 -8
5 6 7 9 9 9 8 8 8 8 8 7 5 4 4 4 4 3 2 1 1 -0 -1 -1 -0 -0 0 -1 -1 -1 -1 -1 -1 -0 -1 -1 -1 -3 -5 -7 -10 -12 -13 -14 -14 -16 -16 -15 -16 -15 -11 -9
5 4 5 7 8 8 8 8 8 8 8 7 6 5 4 4 4 4 3 2 2 1 -0 -0 -0 -1 -0 -1 -1 -1 -1 -1 -0 -0 0 0 -0 -1 -2 -3 -6 -8 -10 -11 -13 -15 -16 -16 -17 -16 -14 -13
6 5 3 5 7 8 8 8 8 8 7 7 6 5 4 4 5 5 4 4 3 2 1 0 -0 -1 -1 -1 -1 -1 -1 -1 -1 -1 -1 -0 -0 -0 -0 -1 -2 -5 -7 -9 -10 -12 -13 -15 -16 -16 -15 -14
7 6 4 3 5 7 8 8 8 8 7 7 6 5 5 5 5 5 4 4 4 4 3 2 0 -1 -1 -1 -1 -1 -1 -2 -2 -2 -3 -2 -2 -2 -2 -2 -2 -3 -5 -8 -9 -10 -10 -12 -13 -14 -12 -12
7 7 6 4 3 5 7 8 8 7 7 7 7 6 5 5 4 4 4 4 5 4 4 3 1 -1 -1 -1 -2 -2 -2 -3 -3 -4 -5 -6 -5 -5 -5 -5 -6 -6 -6 -8 -10 -10 -10 -10 -12 -13 -12 -11
8 7 6 5 3 2 5 8 8 7 7 7 7 6 6 5 4 4 4 5 5 4 4 4 3 1 -0 -1 -1 -1 -2 -3 -4 -6 -8 -10 -10 -9 -9 -9 -9 -10 -11 -11 -12 -13 -11 -11 -12 -13 -12 -11
8 7 7 6 4 2 4 7 8 7 7 7 7 6 6 6 5 5 5 5 4 4 4 4 4 3 2 2 2 1 0 -1 -3 -6 -9 -11 -12 -13 -12 -12 -12 -13 -13 -13 -14 -14 -13 -12 -12 -13 -13 -13
7 7 7 7 5 3 3 5 7 7 7 7 7 6 6 6 6 5 5 5 4 4 4 4 4 4 3 3 3 2 1 1 -2 -6 -9 -11 -13 -14 -14 -15 -15 -15 -15 -15 -16 -16 -15 -15 -14 -14 -15 -15
7 7 7 7 7 5 4 3 5 7 7 7 7 6 6 6 6 6 5 5 4 4 4 4 4 4 3 3 3 2 2 1 -1 -4 -8 -11 -13 -15 -15 -15 -16 -16 -17 -18 -19 -21 -20 -21 -20 -20 -21 -20
6 6 7 7 7 7 6 5 5 6 6 7 7 7 6 6 6 5 5 5 4 4 4 3 3 3 3 3 3 2 2 1 -0 -2 -6 -10 -13 -15 -15 -16 -16 -17 -19 -22 -23 -25 -27 -28 -28 -28 -29 -28
5 5 6 6 6 6 6 6 6 6 6 6 6 6 6 6 6 6 5 5 4 4 4 3 3 3 3 2 2 2 2 1 0 -1 -4 -8 -12 -14 -15 -15 -16 -17 -20 -25 -29 -30 -32 -32 -33 -33 -33 -34
5 5 4 5 5 5 5 5 6 6 6 6 6 6 6 6 6 6 5 5 4 4 4 3 3 2 2 2 2 1 1 1 1 -1 -3 -7 -11 -13 -15 -15 -15 -16 -19 -24 -30 -31 -33 -33 -34 -34 -34 -34
3 4 4 4 4 4 4 5 5 5 5 5 5 5 5 5 5 5 5 5 4 4 4 3 3 2 2 2 1 1 1 1 0 -1 -2 -5 -8 -11 -14 -15 -15 -16 -17 -22 -28 -31 -32 -32 -32 -33 -33 -34
2 3 3 3 4 4 3 4 4 4 4 4 4 4 4 4 5 5 5 5 5 4 4 3 3 2 2 1 1 1 1 1 1 1 0 -2 -4 -8 -12 -14 -15 -15 -16 -19 -26 -29 -30 -30 -31 -31 -30 -32
-4 -1 -0 0 1 2 2 2 3 3 3 3 3 4 4 4 4 4 4 5 5 5 4 4 3 3 2 1 1 1 1 1 2 2 1 -1 -3 -6 -9 -12 -14 -15 -15 -18 -23 -27 -29 -29 -28 -30 -29 -30
-11 -9 -8 -7 -6 -3 -1 1 2 2 2 2 3 3 3 3 3 3 3 3 4 4 4 4 4 3 3 2 2 1 2 2 2 1 1 -1 -2 -4 -7 -10 -13 -15 -15 -17 -21 -24 -26 -27 -27 -28 -28 -28
-16 -14 -12 -12 -11 -9 -6 -3 -0 1 1 1 1 2 2 2 3 3 3 3 3 3 3 4 4 3 3 3 2 2 2 2 2 1 0 -0 -1 -3 -5 -9 -12 -14 -15 -16 -19 -23 -25 -26 -27 -26 -27 -28
-21 -20 -17 -15 -14 -12 -10 -8 -5 -2 -0 1 1 1 1 1 1 2 2 2 2 2 2 3 3 3 3 3 3 2 2 2 2 1 0 0 -0 -2 -4 -9 -12 -13 -15 -16 -17 -21 -24 -24 -23 -24 -26 -29
-24 -24 -23 -21 -19 -16 -15 -13 -12 -9 -5 -4 -3 -2 -0 1 1 0 1 1 1 1 1 2 2 2 2 2 2 2 2 2 2 2 1 1 0 0 -1 -5 -11 -13 -14 -15 -17 -19 -21 -21 -21 -23 -28 -29
-24 -24 -25 -25 -23 -22 -21 -19 -16 -12 -10 -10 -9 -8 -5 -2 -1 -0 -0 0 0 1 1 1 1 1 1 1 2 2 2 2 2 2 2 1 1 1 1 -1 -6 -11 -13 -14 -16 -18 -19 -20 -20 -22 -26 -27
-25 -24 -24 -24 -23 -23 -23 -22 -19 -16 -14 -12 -11 -10 -9 -8 -5 -3 -1 -1 -0 -0 0 0 0 0 0 0 1 1 1 1 1 1 1 1 1 -0 -0 -0 -1 -4 -9 -13 -14 -16 -19 -19 -21 -21 -22 -25